Location: Unspecified
(0.0000°N, 0.0000°E)
Time: 12:24:04
(UTC+01:00)

Ariane H10+ - Visible Passes

Search period start: 22 December 2014 00:00
Search period end: 01 January 2015 00:00
Orbit: 337 x 31770 km, 6.9° (Epoch: 20 December)

Date Brightness Start Highest point End Pass type
(mag) Time Alt. Az. Time Alt. Az. Time Alt. Az.
22 Dec 8.2 00:28:20 48° E 00:28:20 48° E 08:34:23 10° E visible
23 Dec 7.7 04:20:16 30° W 12:31:03 87° S 12:49:28 10° E visible
23 Dec 8.8 22:54:52 17° E 22:54:52 17° E 06:33:38 10° E visible
25 Dec 7.9 02:46:45 67° W 03:02:17 85° S 11:09:35 10° E visible
25 Dec 4.7 20:50:11 10° WNW 20:50:56 18° NW 20:50:56 18° NW visible
27 Dec 8.0 01:13:05 70° E 01:13:05 70° E 09:26:34 10° E visible
28 Dec 7.1 05:04:50 15° W 13:24:12 87° N 13:35:51 10° E visible
28 Dec 8.5 23:39:18 33° E 23:39:18 33° E 07:36:16 10° E visible
30 Dec 8.2 03:30:59 46° W 11:30:19 87° S 11:56:37 10° E visible
31 Dec 11.9 02:31:51 10° E 04:13:40 16° E 05:16:20 10° E visible
